Hc Nadja Maria — V2AV4 — position and weather

sailwx.info

Track history (hours):
 
Tides and Currents Weather Stations Pressure Air Temp Water Temp Dewpoint Dewpoint Depression Visibility Wind Speed Wind Dir Waves Ship Positions

Hc Nadja Maria

Last reported at 2014-Oct-25 23:33 UTC. Time now 2014-Oct-25 23:38 UTC.
Position N 55°55' E 015°60'.

Length 129 m; draft 7.7 m.

Type: Ship (hazmat cat A). MMSI: 304204000.

Date/timePositionNaut miles runAvg speedWind from/ knotsBaromVisibWave heightAir tempDewpointWater temp
2014-Oct-25 23:33N 55°55' E 015°60'1110.5
2014-Oct-25 22:33N 55°60' E 016°16'4210.3
2014-Oct-25 18:28N 56°24' E 017°19'1310.4
2014-Oct-25 17:13N 56°32' E 017°37'810.3
2014-Oct-25 16:25N 56°37' E 017°49'12 9.7
2014-Oct-25 15:13N 56°44' E 018°06'7 9.0
2014-Oct-25 14:28N 56°48' E 018°16'9 9.2
2014-Oct-25 13:31N 56°53' E 018°28'216 8.3
2014-Oct-24 11:25N 59°35' E 022°59'1311.1
2014-Oct-24 10:16N 59°39' E 023°24'811.5
2014-Oct-24 09:33N 59°41' E 023°39'1211.7
2014-Oct-24 08:31N 59°44' E 024°02'4912.1
2014-Oct-24 04:26N 59°54' E 025°39'1112.0
2014-Oct-24 03:30N 59°57' E 026°01'1111.9
2014-Oct-24 02:33N 59°60' E 026°22'1211.8
2014-Oct-24 01:33N 60°01' E 026°46'10311.1
2014-Oct-23 16:13N 59°53' E 030°12'2 0.2
2014-Oct-23 07:13N 59°54' E 030°14'0 0.0
2014-Oct-23 06:33N 59°54' E 030°14'0 0.0
2014-Oct-23 05:31N 59°54' E 030°14'0 0.0
2014-Oct-23 04:31N 59°54' E 030°14'0 0.0
2014-Oct-22 23:34N 59°54' E 030°14'0 0.0
2014-Oct-22 22:33N 59°54' E 030°14'0 0.0
2014-Oct-22 21:31N 59°54' E 030°14'0 0.0
2014-Oct-22 20:09N 59°54' E 030°14'0 0.0
2014-Oct-22 16:34N 59°54' E 030°14'0 0.0
2014-Oct-22 15:34N 59°54' E 030°14'0 0.0
2014-Oct-22 14:34N 59°54' E 030°14'0 0.0
2014-Oct-22 13:34N 59°54' E 030°14'0 0.0
2014-Oct-22 12:34N 59°54' E 030°14'0 0.0
2014-Oct-22 11:28N 59°54' E 030°14'0 0.0
2014-Oct-22 10:34N 59°54' E 030°14'0 0.0
2014-Oct-22 09:34N 59°54' E 030°14'0 0.0
2014-Oct-22 08:34N 59°54' E 030°14'0 0.0
2014-Oct-22 07:34N 59°54' E 030°14'0 0.0
2014-Oct-22 06:34N 59°54' E 030°14'0 0.0
2014-Oct-22 05:34N 59°54' E 030°14'0 0.0
2014-Oct-22 04:34N 59°54' E 030°14'0 0.0
2014-Oct-22 03:34N 59°54' E 030°14'0 0.0
2014-Oct-22 02:34N 59°54' E 030°14'0 0.0
2014-Oct-22 01:34N 59°54' E 030°14'0 0.0
2014-Oct-22 00:34N 59°54' E 030°14'0 0.0
2014-Oct-21 23:34N 59°54' E 030°14'0 0.0
2014-Oct-21 20:33N 59°54' E 030°14'0 0.0
2014-Oct-21 19:34N 59°54' E 030°14'0 0.0
2014-Oct-21 18:30N 59°54' E 030°14'0 0.0
2014-Oct-21 17:34N 59°54' E 030°14'0 0.0
2014-Oct-21 16:34N 59°54' E 030°14'0 0.0
2014-Oct-21 15:31N 59°54' E 030°14'0 0.0
2014-Oct-21 14:31N 59°54' E 030°14'0 0.0
2014-Oct-21 13:34N 59°54' E 030°14'0 0.0
2014-Oct-21 12:33N 59°54' E 030°14'0 0.0
2014-Oct-21 11:34N 59°54' E 030°14'0 0.0
2014-Oct-21 10:31N 59°54' E 030°14'0 0.0
2014-Oct-21 09:33N 59°54' E 030°14'0 0.0
2014-Oct-21 08:33N 59°54' E 030°14'0 0.0
2014-Oct-21 07:34N 59°54' E 030°14'0 0.0
2014-Oct-21 06:34N 59°54' E 030°14'0 0.0
2014-Oct-21 05:34N 59°54' E 030°14'0 0.0
2014-Oct-21 04:33N 59°54' E 030°14'0 0.0
2014-Oct-21 03:34N 59°54' E 030°14'0 0.0
2014-Oct-21 02:34N 59°54' E 030°14'0 0.0
2014-Oct-21 01:33N 59°54' E 030°14'0 0.0
2014-Oct-21 00:34N 59°54' E 030°14'0 0.0
2014-Oct-20 23:34N 59°54' E 030°14'0 0.0
2014-Oct-20 22:34N 59°54' E 030°14'0 0.0
2014-Oct-20 21:34N 59°54' E 030°14'0 0.0
2014-Oct-20 20:33N 59°54' E 030°14'0 0.0
2014-Oct-20 19:34N 59°54' E 030°14'0 0.0
2014-Oct-20 18:34N 59°54' E 030°14'0 0.0
2014-Oct-20 17:34N 59°54' E 030°14'0 0.0
2014-Oct-20 16:34N 59°54' E 030°14'0 0.0
2014-Oct-20 15:34N 59°54' E 030°14'0 0.0
2014-Oct-20 14:33N 59°54' E 030°14'0 0.0
2014-Oct-20 13:34N 59°54' E 030°14'0 0.0
2014-Oct-20 12:33N 59°54' E 030°14'0 0.0
2014-Oct-20 11:31N 59°54' E 030°14'0 0.0
2014-Oct-20 10:34N 59°54' E 030°14'0 0.0
2014-Oct-20 09:34N 59°54' E 030°14'0 0.0
2014-Oct-20 08:34N 59°54' E 030°14'0 0.0
2014-Oct-20 07:33N 59°54' E 030°14'0 0.0
2014-Oct-20 06:34N 59°54' E 030°14'0 0.0
2014-Oct-20 05:34N 59°54' E 030°14'0 0.0
2014-Oct-20 03:28N 59°54' E 030°14'0 0.0
2014-Oct-20 02:28N 59°54' E 030°14'0 0.0
2014-Oct-20 01:34N 59°54' E 030°14'0 0.0
2014-Oct-20 00:10N 59°54' E 030°14'0 0.0
2014-Oct-19 23:28N 59°54' E 030°14'0 0.0
2014-Oct-19 15:22N 59°54' E 030°14'0 0.0
2014-Oct-19 12:16N 59°54' E 030°14'  
2014-Oct-17 07:05N 59°59' E 026°43'712.6
2014-Oct-17 06:33N 59°58' E 026°29'  
Track history (hours):
 
Tides and Currents Weather Stations Pressure Air Temp Water Temp Dewpoint Dewpoint Depression Visibility Wind Speed Wind Dir Waves Ship Positions

Hc Nadja Maria

Last reported at 2014-Oct-25 23:33 UTC. Time now 2014-Oct-25 23:38 UTC.
Position N 55°55' E 015°60'.

Length 129 m; draft 7.7 m.

Type: Ship (hazmat cat A). MMSI: 304204000.

Date/timePositionNaut miles runAvg speedWind from/ knotsBaromVisibWave heightAir tempDewpointWater temp
2014-Oct-25 23:33N 55°55' E 015°60'1110.5
2014-Oct-25 22:33N 55°60' E 016°16'4210.3
2014-Oct-25 18:28N 56°24' E 017°19'1310.4
2014-Oct-25 17:13N 56°32' E 017°37'810.3
2014-Oct-25 16:25N 56°37' E 017°49'12 9.7
2014-Oct-25 15:13N 56°44' E 018°06'7 9.0
2014-Oct-25 14:28N 56°48' E 018°16'9 9.2
2014-Oct-25 13:31N 56°53' E 018°28'216 8.3
2014-Oct-24 11:25N 59°35' E 022°59'1311.1
2014-Oct-24 10:16N 59°39' E 023°24'811.5
2014-Oct-24 09:33N 59°41' E 023°39'1211.7
2014-Oct-24 08:31N 59°44' E 024°02'4912.1
2014-Oct-24 04:26N 59°54' E 025°39'1112.0
2014-Oct-24 03:30N 59°57' E 026°01'1111.9
2014-Oct-24 02:33N 59°60' E 026°22'1211.8
2014-Oct-24 01:33N 60°01' E 026°46'10311.1
2014-Oct-23 16:13N 59°53' E 030°12'2 0.2
2014-Oct-23 07:13N 59°54' E 030°14'0 0.0
2014-Oct-23 06:33N 59°54' E 030°14'0 0.0
2014-Oct-23 05:31N 59°54' E 030°14'0 0.0
2014-Oct-23 04:31N 59°54' E 030°14'0 0.0
2014-Oct-22 23:34N 59°54' E 030°14'0 0.0
2014-Oct-22 22:33N 59°54' E 030°14'0 0.0
2014-Oct-22 21:31N 59°54' E 030°14'0 0.0
2014-Oct-22 20:09N 59°54' E 030°14'0 0.0
2014-Oct-22 16:34N 59°54' E 030°14'0 0.0
2014-Oct-22 15:34N 59°54' E 030°14'0 0.0
2014-Oct-22 14:34N 59°54' E 030°14'0 0.0
2014-Oct-22 13:34N 59°54' E 030°14'0 0.0
2014-Oct-22 12:34N 59°54' E 030°14'0 0.0
2014-Oct-22 11:28N 59°54' E 030°14'0 0.0
2014-Oct-22 10:34N 59°54' E 030°14'0 0.0
2014-Oct-22 09:34N 59°54' E 030°14'0 0.0
2014-Oct-22 08:34N 59°54' E 030°14'0 0.0
2014-Oct-22 07:34N 59°54' E 030°14'0 0.0
2014-Oct-22 06:34N 59°54' E 030°14'0 0.0
2014-Oct-22 05:34N 59°54' E 030°14'0 0.0
2014-Oct-22 04:34N 59°54' E 030°14'0 0.0
2014-Oct-22 03:34N 59°54' E 030°14'0 0.0
2014-Oct-22 02:34N 59°54' E 030°14'0 0.0
2014-Oct-22 01:34N 59°54' E 030°14'0 0.0
2014-Oct-22 00:34N 59°54' E 030°14'0 0.0
2014-Oct-21 23:34N 59°54' E 030°14'0 0.0
2014-Oct-21 20:33N 59°54' E 030°14'0 0.0
2014-Oct-21 19:34N 59°54' E 030°14'0 0.0
2014-Oct-21 18:30N 59°54' E 030°14'0 0.0
2014-Oct-21 17:34N 59°54' E 030°14'0 0.0
2014-Oct-21 16:34N 59°54' E 030°14'0 0.0
2014-Oct-21 15:31N 59°54' E 030°14'0 0.0
2014-Oct-21 14:31N 59°54' E 030°14'0 0.0
2014-Oct-21 13:34N 59°54' E 030°14'0 0.0
2014-Oct-21 12:33N 59°54' E 030°14'0 0.0
2014-Oct-21 11:34N 59°54' E 030°14'0 0.0
2014-Oct-21 10:31N 59°54' E 030°14'0 0.0
2014-Oct-21 09:33N 59°54' E 030°14'0 0.0
2014-Oct-21 08:33N 59°54' E 030°14'0 0.0
2014-Oct-21 07:34N 59°54' E 030°14'0 0.0
2014-Oct-21 06:34N 59°54' E 030°14'0 0.0
2014-Oct-21 05:34N 59°54' E 030°14'0 0.0
2014-Oct-21 04:33N 59°54' E 030°14'0 0.0
2014-Oct-21 03:34N 59°54' E 030°14'0 0.0
2014-Oct-21 02:34N 59°54' E 030°14'0 0.0
2014-Oct-21 01:33N 59°54' E 030°14'0 0.0
2014-Oct-21 00:34N 59°54' E 030°14'0 0.0
2014-Oct-20 23:34N 59°54' E 030°14'0 0.0
2014-Oct-20 22:34N 59°54' E 030°14'0 0.0
2014-Oct-20 21:34N 59°54' E 030°14'0 0.0
2014-Oct-20 20:33N 59°54' E 030°14'0 0.0
2014-Oct-20 19:34N 59°54' E 030°14'0 0.0
2014-Oct-20 18:34N 59°54' E 030°14'0 0.0
2014-Oct-20 17:34N 59°54' E 030°14'0 0.0
2014-Oct-20 16:34N 59°54' E 030°14'0 0.0
2014-Oct-20 15:34N 59°54' E 030°14'0 0.0
2014-Oct-20 14:33N 59°54' E 030°14'0 0.0
2014-Oct-20 13:34N 59°54' E 030°14'0 0.0
2014-Oct-20 12:33N 59°54' E 030°14'0 0.0
2014-Oct-20 11:31N 59°54' E 030°14'0 0.0
2014-Oct-20 10:34N 59°54' E 030°14'0 0.0
2014-Oct-20 09:34N 59°54' E 030°14'0 0.0
2014-Oct-20 08:34N 59°54' E 030°14'0 0.0
2014-Oct-20 07:33N 59°54' E 030°14'0 0.0
2014-Oct-20 06:34N 59°54' E 030°14'0 0.0
2014-Oct-20 05:34N 59°54' E 030°14'0 0.0
2014-Oct-20 03:28N 59°54' E 030°14'0 0.0
2014-Oct-20 02:28N 59°54' E 030°14'0 0.0
2014-Oct-20 01:34N 59°54' E 030°14'0 0.0
2014-Oct-20 00:10N 59°54' E 030°14'0 0.0
2014-Oct-19 23:28N 59°54' E 030°14'0 0.0
2014-Oct-19 15:22N 59°54' E 030°14'0 0.0
2014-Oct-19 12:16N 59°54' E 030°14'  
2014-Oct-17 07:05N 59°59' E 026°43'712.6
2014-Oct-17 06:33N 59°58' E 026°29'  

Dump ship's entire track history